Time,TemperatureF,DewpointF,PressureIn,WindDirection,WindDirectionDegrees,WindSpeedMPH,WindSpeedGustMPH,Humidity,HourlyPrecipIn,Conditions,Clouds,dailyrainin,SoftwareType,DateUTC
2013-07-27 00:02:00,68.4,60.5,29.72,SSW,196,0.0,0.0,76,0.00,,OVC022,0.01,VWS V14.01,2013-07-27 04:02:00,
2013-07-27 00:07:00,68.3,60.5,29.72,South,181,0.0,0.0,76,0.00,,OVC022,0.00,VWS V14.01,2013-07-27 04:07:00,
2013-07-27 00:13:00,68.3,60.5,29.72,SSE,168,0.0,0.0,76,0.00,,OVC022,0.00,VWS V14.01,2013-07-27 04:13:00,
2013-07-27 00:22:00,68.3,60.8,29.72,South,182,0.0,0.0,77,0.00,,SCT050,0.00,VWS V14.01,2013-07-27 04:22:00,
2013-07-27 00:27:00,68.3,60.8,29.72,South,191,0.0,0.0,77,0.00,,SCT050,0.00,VWS V14.01,2013-07-27 04:27:00,
2013-07-27 00:37:00,68.1,60.6,29.71,South,182,0.0,0.0,77,0.00,,SCT050,0.00,VWS V14.01,2013-07-27 04:37:00,
2013-07-27 00:47:00,68.1,60.6,29.71,SSW,198,0.0,0.0,77,0.00,,SCT050,0.00,VWS V14.01,2013-07-27 04:47:00,
2013-07-27 00:57:00,67.9,60.8,29.71,South,188,0.0,0.0,78,0.00,,SCT050,0.00,VWS V14.01,2013-07-27 04:57:00,
2013-07-27 01:02:00,67.9,60.8,29.71,SSW,203,0.0,0.0,78,0.00,,SCT050,0.00,VWS V14.01,2013-07-27 05:02:00,
2013-07-27 01:12:00,67.8,61.1,29.71,SSW,210,0.0,0.0,79,0.00,,SCT050,0.00,VWS V14.01,2013-07-27 05:12:00,
2013-07-27 01:22:00,67.8,61.1,29.70,SSW,213,0.0,0.0,79,0.00,,CLR,0.00,VWS V14.01,2013-07-27 05:22:00,
2013-07-27 01:27:00,67.6,60.9,29.70,SSW,206,0.0,0.0,79,0.00,,CLR,0.00,VWS V14.01,2013-07-27 05:27:00,
2013-07-27 01:32:00,67.4,61.0,29.70,SSW,200,0.0,0.0,80,0.00,,CLR,0.00,VWS V14.01,2013-07-27 05:32:00,
2013-07-27 01:42:00,67.4,61.0,29.70,SSW,199,0.0,0.0,80,0.00,,CLR,0.00,VWS V14.01,2013-07-27 05:42:00,
2013-07-27 01:47:00,67.3,61.3,29.70,SSW,199,0.0,0.0,81,0.00,,CLR,0.00,VWS V14.01,2013-07-27 05:47:00,
2013-07-27 01:52:00,67.3,61.3,29.70,SSW,199,0.0,0.0,81,0.00,,CLR,0.00,VWS V14.01,2013-07-27 05:52:00,
2013-07-27 02:02:00,67.1,61.4,29.69,South,182,0.0,0.0,82,0.00,,CLR,0.00,VWS V14.01,2013-07-27 06:02:00,
2013-07-27 02:12:00,67.1,61.4,29.69,South,182,0.0,0.0,82,0.00,,CLR,0.00,VWS V14.01,2013-07-27 06:12:00,
2013-07-27 02:17:00,67.1,61.4,29.68,SSW,202,0.0,0.0,82,0.00,,CLR,0.00,VWS V14.01,2013-07-27 06:17:00,
2013-07-27 02:22:00,67.1,61.4,29.68,SSW,202,0.0,0.0,82,0.00,,BKN048,0.00,VWS V14.01,2013-07-27 06:22:00,
2013-07-27 02:27:00,66.9,61.6,29.68,SSW,202,0.0,0.0,83,0.00,,BKN048,0.00,VWS V14.01,2013-07-27 06:27:00,
2013-07-27 02:32:00,66.9,61.6,29.68,SSW,198,0.0,0.0,83,0.00,,BKN048,0.00,VWS V14.01,2013-07-27 06:32:00,
2013-07-27 02:37:00,66.9,61.6,29.68,SSW,198,0.0,0.0,83,0.00,,BKN048,0.00,VWS V14.01,2013-07-27 06:37:00,
2013-07-27 02:42:00,66.9,61.9,29.68,SSW,198,0.0,0.0,84,0.00,,BKN048,0.00,VWS V14.01,2013-07-27 06:42:00,
2013-07-27 02:47:00,66.9,61.9,29.68,SSW,200,0.0,0.0,84,0.00,,BKN048,0.00,VWS V14.01,2013-07-27 06:47:00,
2013-07-27 02:52:00,66.9,61.9,29.68,SSW,199,0.0,0.0,84,0.00,,BKN048,0.00,VWS V14.01,2013-07-27 06:52:00,
2013-07-27 03:02:00,67.1,62.5,29.68,SSW,208,0.0,0.0,85,0.00,,BKN048,0.00,VWS V14.01,2013-07-27 07:02:00,
2013-07-27 03:07:00,67.1,62.5,29.68,SSW,205,0.0,0.0,85,0.00,,BKN048,0.00,VWS V14.01,2013-07-27 07:07:00,
2013-07-27 03:17:00,67.3,62.6,29.67,SSW,209,0.0,0.0,85,0.00,,BKN048,0.00,VWS V14.01,2013-07-27 07:17:00,
2013-07-27 03:22:00,67.3,62.6,29.67,SSW,212,0.0,0.0,85,0.00,,BKN009,0.00,VWS V14.01,2013-07-27 07:22:00,
2013-07-27 03:32:00,67.4,62.7,29.67,SSW,203,0.0,0.0,85,0.00,,BKN009,0.00,VWS V14.01,2013-07-27 07:32:00,
2013-07-27 03:37:00,67.4,62.7,29.67,SSW,200,0.0,0.0,85,0.00,,BKN009,0.00,VWS V14.01,2013-07-27 07:37:00,
2013-07-27 03:42:00,67.4,62.7,29.67,SSW,199,0.0,0.0,85,0.00,,BKN009,0.00,VWS V14.01,2013-07-27 07:42:00,
2013-07-27 03:47:00,67.4,62.7,29.67,SSW,202,0.0,0.0,85,0.00,,BKN009,0.00,VWS V14.01,2013-07-27 07:47:00,
2013-07-27 03:57:00,67.4,62.7,29.67,South,182,0.0,0.0,85,0.00,,BKN009,0.00,VWS V14.01,2013-07-27 07:57:00,
2013-07-27 04:02:00,67.4,62.7,29.67,SSW,202,0.0,0.0,85,0.00,,BKN009,0.00,VWS V14.01,2013-07-27 08:02:00,
2013-07-27 04:12:00,67.4,62.7,29.67,SW,215,0.0,0.0,85,0.00,,BKN009,0.00,VWS V14.01,2013-07-27 08:12:00,
2013-07-27 04:17:00,67.4,62.7,29.67,SSW,200,0.0,0.0,85,0.00,,BKN009,0.00,VWS V14.01,2013-07-27 08:17:00,
2013-07-27 04:22:00,67.4,62.7,29.67,SW,215,0.0,0.0,85,0.00,,BKN009,0.00,VWS V14.01,2013-07-27 08:22:00,
2013-07-27 04:32:00,67.4,62.7,29.67,SSW,213,0.0,0.0,85,0.00,,BKN009,0.00,VWS V14.01,2013-07-27 08:32:00,
2013-07-27 04:37:00,67.4,62.7,29.67,SSW,213,0.0,0.0,85,0.00,,BKN009,0.00,VWS V14.01,2013-07-27 08:37:00,
2013-07-27 04:42:00,67.4,63.1,29.67,SW,223,0.0,0.0,86,0.00,,BKN009,0.00,VWS V14.01,2013-07-27 08:42:00,
2013-07-27 04:47:00,67.4,63.1,29.66,SW,224,0.0,0.0,86,0.00,,BKN009,0.00,VWS V14.01,2013-07-27 08:47:00,
2013-07-27 04:57:00,67.4,63.1,29.66,SW,217,0.0,0.0,86,0.00,,BKN009,0.00,VWS V14.01,2013-07-27 08:57:00,
2013-07-27 05:02:00,67.3,63.0,29.66,SW,223,0.0,0.0,86,0.00,,BKN009,0.00,VWS V14.01,2013-07-27 09:02:00,
2013-07-27 05:12:00,67.3,63.0,29.66,SW,223,0.0,0.0,86,0.00,,BKN009,0.00,VWS V14.01,2013-07-27 09:12:00,
2013-07-27 05:17:00,67.3,63.3,29.66,SW,223,0.0,0.0,87,0.00,,BKN009,0.00,VWS V14.01,2013-07-27 09:17:00,
2013-07-27 05:27:00,67.3,63.3,29.66,SW,220,0.0,0.0,87,0.00,,,0.00,VWS V14.01,2013-07-27 09:27:00,
2013-07-27 05:37:00,67.3,63.3,29.66,SW,220,0.0,0.0,87,0.00,,,0.00,VWS V14.01,2013-07-27 09:37:00,
2013-07-27 05:42:00,67.1,63.4,29.66,SW,220,0.0,0.0,88,0.00,,,0.00,VWS V14.01,2013-07-27 09:42:00,
2013-07-27 05:47:00,67.1,63.4,29.66,SW,220,0.0,0.0,88,0.00,,,0.00,VWS V14.01,2013-07-27 09:47:00,
2013-07-27 05:52:00,67.1,63.4,29.66,SW,223,0.0,0.0,88,0.00,,,0.00,VWS V14.01,2013-07-27 09:52:00,
2013-07-27 05:57:00,67.1,63.4,29.66,SW,223,0.0,0.0,88,0.00,,,0.00,VWS V14.01,2013-07-27 09:57:00,
2013-07-27 06:02:00,67.1,63.4,29.65,SW,223,0.0,0.0,88,0.00,,,0.00,VWS V14.01,2013-07-27 10:02:00,
2013-07-27 06:07:00,67.1,63.4,29.65,SW,223,0.0,0.0,88,0.00,,,0.00,VWS V14.01,2013-07-27 10:07:00,
2013-07-27 06:12:00,67.1,63.4,29.65,SW,223,0.0,0.0,88,0.00,,,0.00,VWS V14.01,2013-07-27 10:12:00,
2013-07-27 06:22:00,67.1,63.8,29.66,SW,223,0.0,0.0,89,0.00,,,0.00,VWS V14.01,2013-07-27 10:22:00,
2013-07-27 06:27:00,66.9,63.6,29.66,SW,223,0.0,0.0,89,0.00,,,0.00,VWS V14.01,2013-07-27 10:27:00,
2013-07-27 06:37:00,66.9,63.6,29.66,SW,226,0.0,0.0,89,0.00,,,0.00,VWS V14.01,2013-07-27 10:37:00,
2013-07-27 06:42:00,66.9,63.6,29.66,SW,226,0.0,0.0,89,0.00,,,0.00,VWS V14.01,2013-07-27 10:42:00,
2013-07-27 06:52:00,66.8,63.5,29.66,SW,227,0.0,0.0,89,0.00,,,0.00,VWS V14.01,2013-07-27 10:52:00,
2013-07-27 07:02:00,66.6,63.3,29.67,SW,230,0.0,0.0,89,0.00,,,0.00,VWS V14.01,2013-07-27 11:02:00,
2013-07-27 07:12:00,66.4,63.1,29.67,SW,234,0.0,0.0,89,0.00,,,0.00,VWS V14.01,2013-07-27 11:12:00,
2013-07-27 07:17:00,66.3,63.0,29.67,West,261,0.0,0.0,89,0.00,,,0.00,VWS V14.01,2013-07-27 11:17:00,
2013-07-27 07:22:00,66.3,63.0,29.67,West,274,0.0,0.0,89,0.00,,,0.00,VWS V14.01,2013-07-27 11:22:00,
2013-07-27 07:27:00,66.0,62.7,29.67,West,265,0.0,0.0,89,0.00,,,0.00,VWS V14.01,2013-07-27 11:27:00,
2013-07-27 07:32:00,65.8,62.5,29.67,West,263,0.0,0.0,89,0.00,,,0.00,VWS V14.01,2013-07-27 11:32:00,
2013-07-27 07:37:00,65.8,62.5,29.67,SW,234,0.0,0.0,89,0.00,,,0.00,VWS V14.01,2013-07-27 11:37:00,
2013-07-27 07:47:00,65.5,62.2,29.67,West,278,0.0,0.0,89,0.00,,,0.00,VWS V14.01,2013-07-27 11:47:00,
2013-07-27 07:52:00,65.5,62.2,29.67,West,272,0.0,0.0,89,0.00,,,0.00,VWS V14.01,2013-07-27 11:52:00,
2013-07-27 07:57:00,65.3,62.0,29.67,WNW,287,0.0,0.0,89,0.00,,,0.00,VWS V14.01,2013-07-27 11:57:00,
2013-07-27 08:02:00,65.2,61.9,29.67,WNW,282,0.0,0.0,89,0.00,,,0.00,VWS V14.01,2013-07-27 12:02:00,
2013-07-27 08:12:00,65.3,61.7,29.67,West,280,0.0,0.0,88,0.00,,,0.00,VWS V14.01,2013-07-27 12:12:00,
2013-07-27 08:17:00,65.6,61.6,29.67,West,280,0.0,0.0,87,0.00,,,0.00,VWS V14.01,2013-07-27 12:17:00,
2013-07-27 08:27:00,66.0,61.0,29.67,SW,229,0.0,0.0,84,0.00,,,0.00,VWS V14.01,2013-07-27 12:27:00,
2013-07-27 08:37:00,66.4,61.1,29.67,SW,236,0.0,0.0,83,0.00,,,0.00,VWS V14.01,2013-07-27 12:37:00,
2013-07-27 08:42:00,66.6,61.3,29.67,WSW,237,0.0,0.0,83,0.00,,,0.00,VWS V14.01,2013-07-27 12:42:00,
2013-07-27 08:47:00,66.3,61.3,29.67,SW,226,0.0,0.0,84,0.00,,,0.00,VWS V14.01,2013-07-27 12:47:00,
2013-07-27 08:57:00,66.0,61.4,29.67,SW,232,0.0,0.0,85,0.00,,,0.00,VWS V14.01,2013-07-27 12:57:00,
2013-07-27 09:02:00,66.1,61.5,29.67,SW,233,0.0,0.0,85,0.00,,,0.00,VWS V14.01,2013-07-27 13:02:00,
2013-07-27 09:07:00,66.0,61.4,29.67,SW,236,0.0,0.0,85,0.00,,,0.00,VWS V14.01,2013-07-27 13:07:00,
2013-07-27 09:17:00,66.0,61.0,29.67,WSW,244,0.0,0.0,84,0.00,,,0.00,VWS V14.01,2013-07-27 13:17:00,
2013-07-27 09:27:00,66.3,60.7,29.67,WSW,250,0.0,0.0,82,0.00,,BKN019,0.00,VWS V14.01,2013-07-27 13:27:00,
2013-07-27 09:32:00,66.1,60.8,29.67,WSW,250,0.0,0.0,83,0.00,,BKN019,0.00,VWS V14.01,2013-07-27 13:32:00,
2013-07-27 09:37:00,66.1,60.5,29.67,WSW,251,0.0,0.0,82,0.00,,BKN019,0.00,VWS V14.01,2013-07-27 13:37:00,
2013-07-27 09:42:00,66.1,60.1,29.67,West,260,0.0,0.0,81,0.00,,BKN019,0.00,VWS V14.01,2013-07-27 13:42:00,
2013-07-27 09:47:00,66.6,60.2,29.67,West,261,0.0,0.0,80,0.00,,BKN019,0.00,VWS V14.01,2013-07-27 13:47:00,
2013-07-27 09:57:00,66.9,60.5,29.67,West,278,0.0,0.0,80,0.00,,BKN019,0.00,VWS V14.01,2013-07-27 13:57:00,
2013-07-27 10:02:00,66.9,60.5,29.67,WNW,287,0.0,0.0,80,0.00,,BKN019,0.00,VWS V14.01,2013-07-27 14:02:00,
2013-07-27 10:12:00,67.3,60.6,29.67,West,281,0.0,0.0,79,0.00,,BKN019,0.00,VWS V14.01,2013-07-27 14:12:00,
2013-07-27 10:17:00,67.3,60.6,29.66,WSW,240,0.0,0.0,79,0.00,,BKN019,0.00,VWS V14.01,2013-07-27 14:17:00,
2013-07-27 10:27:00,67.1,60.4,29.66,NW,319,0.0,0.0,79,0.00,,BKN021,0.00,VWS V14.01,2013-07-27 14:27:00,
2013-07-27 10:32:00,67.4,60.3,29.66,North,349,0.0,0.0,78,0.00,,BKN021,0.00,VWS V14.01,2013-07-27 14:32:00,
2013-07-27 10:37:00,67.3,59.8,29.66,NNW,342,0.0,0.0,77,0.00,,BKN021,0.00,VWS V14.01,2013-07-27 14:37:00,
2013-07-27 10:42:00,67.3,59.5,29.66,NNW,340,0.0,0.0,76,0.00,,BKN021,0.00,VWS V14.01,2013-07-27 14:42:00,
2013-07-27 10:47:00,67.3,59.5,29.67,NW,309,0.0,0.0,76,0.00,,BKN021,0.00,VWS V14.01,2013-07-27 14:47:00,
2013-07-27 10:57:00,67.1,59.7,29.67,WNW,285,0.0,0.0,77,0.00,,BKN021,0.00,VWS V14.01,2013-07-27 14:57:00,
2013-07-27 11:07:00,68.1,59.1,29.66,WNW,287,0.0,0.0,73,0.00,,BKN021,0.00,VWS V14.01,2013-07-27 15:07:00,
2013-07-27 11:17:00,69.4,58.8,29.66,NNW,344,0.0,0.0,69,0.00,,BKN021,0.00,VWS V14.01,2013-07-27 15:17:00,
2013-07-27 11:22:00,69.1,58.5,29.66,West,263,0.0,0.0,69,0.00,,BKN045,0.00,VWS V14.01,2013-07-27 15:22:00,
2013-07-27 11:27:00,69.6,59.0,29.66,West,263,0.0,0.0,69,0.00,,BKN045,0.00,VWS V14.01,2013-07-27 15:27:00,
2013-07-27 11:32:00,70.1,58.2,29.66,SSW,198,0.0,0.0,66,0.00,,BKN045,0.00,VWS V14.01,2013-07-27 15:32:00,
2013-07-27 11:42:00,69.6,58.2,29.66,NW,322,0.0,0.0,67,0.00,,BKN045,0.00,VWS V14.01,2013-07-27 15:42:00,
2013-07-27 11:47:00,69.6,58.2,29.66,SW,236,0.0,0.0,67,0.00,,BKN045,0.00,VWS V14.01,2013-07-27 15:47:00,
2013-07-27 11:52:00,69.8,58.8,29.66,WNW,284,0.0,0.0,68,0.00,,BKN045,0.00,VWS V14.01,2013-07-27 15:52:00,
2013-07-27 11:57:00,70.3,58.4,29.66,WSW,241,0.0,0.0,66,0.00,,BKN045,0.00,VWS V14.01,2013-07-27 15:57:00,
2013-07-27 12:02:00,71.5,56.9,29.65,SSW,210,0.0,0.0,60,0.00,,BKN045,0.00,VWS V14.01,2013-07-27 16:02:00,
2013-07-27 12:12:00,71.6,57.5,29.65,WSW,254,0.0,0.0,61,0.00,,BKN045,0.00,VWS V14.01,2013-07-27 16:12:00,
2013-07-27 12:17:00,71.5,56.0,29.65,West,271,0.0,0.0,58,0.00,,BKN045,0.00,VWS V14.01,2013-07-27 16:17:00,
2013-07-27 12:22:00,71.6,56.1,29.65,WSW,250,0.0,0.0,58,0.00,,BKN047,0.00,VWS V14.01,2013-07-27 16:22:00,
2013-07-27 12:27:00,72.0,56.0,29.65,WSW,239,0.0,0.0,57,0.00,,BKN047,0.00,VWS V14.01,2013-07-27 16:27:00,
2013-07-27 12:32:00,71.8,56.2,29.64,West,281,0.0,0.0,58,0.00,,BKN047,0.00,VWS V14.01,2013-07-27 16:32:00,
2013-07-27 12:37:00,71.8,54.8,29.64,West,261,0.0,0.0,55,0.00,,BKN047,0.00,VWS V14.01,2013-07-27 16:37:00,
2013-07-27 12:42:00,71.8,55.8,29.64,West,260,0.0,0.0,57,0.00,,BKN047,0.00,VWS V14.01,2013-07-27 16:42:00,
2013-07-27 12:47:00,72.1,55.1,29.64,SW,222,0.0,0.0,55,0.00,,BKN047,0.00,VWS V14.01,2013-07-27 16:47:00,
2013-07-27 12:52:00,71.3,56.2,29.64,NW,312,0.0,0.0,59,0.00,,BKN047,0.00,VWS V14.01,2013-07-27 16:52:00,
2013-07-27 12:57:00,70.3,56.7,29.64,WSW,254,0.0,0.0,62,0.00,,BKN047,0.00,VWS V14.01,2013-07-27 16:57:00,
2013-07-27 13:07:00,70.9,57.2,29.64,WSW,251,0.0,0.0,62,0.00,,BKN047,0.00,VWS V14.01,2013-07-27 17:07:00,
2013-07-27 13:12:00,70.8,56.2,29.64,WNW,287,0.0,0.0,60,0.00,,BKN047,0.00,VWS V14.01,2013-07-27 17:12:00,
2013-07-27 13:17:00,70.8,55.8,29.64,West,265,0.0,0.0,59,0.00,,BKN047,0.00,VWS V14.01,2013-07-27 17:17:00,
2013-07-27 13:22:00,70.8,56.2,29.64,WNW,289,0.0,0.0,60,0.00,,OVC070,0.00,VWS V14.01,2013-07-27 17:22:00,
2013-07-27 13:27:00,70.9,55.9,29.64,NW,311,0.0,0.0,59,0.00,,OVC070,0.00,VWS V14.01,2013-07-27 17:27:00,
2013-07-27 13:37:00,70.9,56.3,29.64,West,271,0.0,0.0,60,0.00,,OVC070,0.00,VWS V14.01,2013-07-27 17:37:00,
2013-07-27 13:42:00,71.6,56.5,29.64,WNW,302,0.0,0.0,59,0.00,,OVC070,0.00,VWS V14.01,2013-07-27 17:42:00,
2013-07-27 13:47:00,70.8,55.8,29.64,West,272,0.0,0.0,59,0.00,,OVC070,0.00,VWS V14.01,2013-07-27 17:47:00,
2013-07-27 13:52:00,69.6,56.0,29.64,NW,308,0.0,0.0,62,0.00,,OVC070,0.00,VWS V14.01,2013-07-27 17:52:00,
2013-07-27 13:57:00,69.3,56.6,29.64,NW,313,0.0,0.0,64,0.00,,OVC070,0.00,VWS V14.01,2013-07-27 17:57:00,
2013-07-27 14:02:00,70.4,55.4,29.64,West,275,0.0,0.0,59,0.00,,OVC070,0.00,VWS V14.01,2013-07-27 18:02:00,
2013-07-27 14:12:00,69.6,56.5,29.64,West,281,0.0,0.0,63,0.00,,OVC070,0.00,VWS V14.01,2013-07-27 18:12:00,
2013-07-27 14:17:00,69.1,56.0,29.65,West,270,0.0,0.0,63,0.00,,OVC070,0.00,VWS V14.01,2013-07-27 18:17:00,
2013-07-27 14:27:00,69.9,56.8,29.65,WSW,257,0.0,0.0,63,0.00,,OVC065,0.00,VWS V14.01,2013-07-27 18:27:00,
2013-07-27 14:32:00,70.9,57.2,29.64,West,274,0.0,0.0,62,0.00,,OVC065,0.00,VWS V14.01,2013-07-27 18:32:00,
2013-07-27 14:42:00,70.8,57.6,29.64,NW,309,0.0,0.0,63,0.00,,OVC065,0.00,VWS V14.01,2013-07-27 18:42:00,
2013-07-27 14:47:00,69.8,56.7,29.65,NW,309,0.0,0.0,63,0.00,,OVC065,0.00,VWS V14.01,2013-07-27 18:47:00,
2013-07-27 14:52:00,69.6,56.5,29.65,WNW,285,0.0,0.0,63,0.00,,OVC065,0.00,VWS V14.01,2013-07-27 18:52:00,
2013-07-27 14:57:00,70.4,55.9,29.65,NW,304,0.0,0.0,60,0.00,,OVC065,0.00,VWS V14.01,2013-07-27 18:57:00,
2013-07-27 15:02:00,70.8,55.8,29.64,West,274,0.0,0.0,59,0.00,,OVC065,0.00,VWS V14.01,2013-07-27 19:02:00,
2013-07-27 15:12:00,71.3,55.8,29.64,WNW,282,0.0,0.0,58,0.00,,OVC065,0.00,VWS V14.01,2013-07-27 19:12:00,
2013-07-27 15:17:00,71.3,54.3,29.64,West,271,0.0,0.0,55,0.00,,OVC065,0.00,VWS V14.01,2013-07-27 19:17:00,
2013-07-27 15:22:00,71.8,55.3,29.64,West,280,0.0,0.0,56,0.00,,OVC050,0.00,VWS V14.01,2013-07-27 19:22:00,
2013-07-27 15:27:00,69.6,56.0,29.64,NNW,328,0.0,0.0,62,0.00,,OVC050,0.00,VWS V14.01,2013-07-27 19:27:00,
2013-07-27 15:32:00,69.6,55.1,29.65,WNW,295,0.0,0.0,60,0.00,,OVC050,0.00,VWS V14.01,2013-07-27 19:32:00,
2013-07-27 15:37:00,69.3,55.7,29.65,NNW,347,0.0,0.0,62,0.00,,OVC050,0.00,VWS V14.01,2013-07-27 19:37:00,
2013-07-27 15:42:00,70.3,56.2,29.65,NW,305,0.0,0.0,61,0.00,,OVC050,0.00,VWS V14.01,2013-07-27 19:42:00,
2013-07-27 15:47:00,70.1,55.6,29.64,North,349,0.0,0.0,60,0.00,,OVC050,0.00,VWS V14.01,2013-07-27 19:47:00,
2013-07-27 15:52:00,70.6,56.1,29.64,NNW,332,0.0,0.0,60,0.00,,OVC050,0.00,VWS V14.01,2013-07-27 19:52:00,
2013-07-27 15:57:00,69.8,55.8,29.64,NW,305,0.0,0.0,61,0.00,,OVC050,0.00,VWS V14.01,2013-07-27 19:57:00,
2013-07-27 16:02:00,69.6,56.0,29.65,NW,316,0.0,0.0,62,0.00,,OVC050,0.00,VWS V14.01,2013-07-27 20:02:00,
2013-07-27 16:07:00,69.4,56.3,29.65,NW,306,0.0,0.0,63,0.00,,OVC050,0.00,VWS V14.01,2013-07-27 20:07:00,
2013-07-27 16:12:00,69.4,56.3,29.65,NW,325,0.0,0.0,63,0.00,,OVC050,0.00,VWS V14.01,2013-07-27 20:12:00,
2013-07-27 16:22:00,68.6,55.5,29.64,NW,306,0.0,0.0,63,0.00,,OVC030,0.00,VWS V14.01,2013-07-27 20:22:00,
2013-07-27 16:27:00,68.3,55.2,29.64,NW,322,0.0,0.0,63,0.00,,OVC030,0.00,VWS V14.01,2013-07-27 20:27:00,
2013-07-27 16:32:00,68.4,54.9,29.65,NW,316,0.0,0.0,62,0.00,,OVC030,0.00,VWS V14.01,2013-07-27 20:32:00,
2013-07-27 16:37:00,68.4,55.3,29.65,West,260,0.0,0.0,63,0.00,,OVC030,0.00,VWS V14.01,2013-07-27 20:37:00,
2013-07-27 16:42:00,68.3,54.8,29.65,West,277,0.0,0.0,62,0.00,,OVC030,0.00,VWS V14.01,2013-07-27 20:42:00,
2013-07-27 16:47:00,68.9,55.8,29.65,WSW,241,0.0,0.0,63,0.00,,OVC030,0.00,VWS V14.01,2013-07-27 20:47:00,
2013-07-27 16:57:00,67.9,54.4,29.65,NW,304,0.0,0.0,62,0.00,,OVC030,0.00,VWS V14.01,2013-07-27 20:57:00,
2013-07-27 17:02:00,66.9,54.3,29.66,NNW,342,0.0,0.0,64,0.00,,OVC030,0.00,VWS V14.01,2013-07-27 21:02:00,
2013-07-27 17:12:00,65.6,53.5,29.66,NNW,347,0.0,0.0,65,0.00,,OVC030,0.00,VWS V14.01,2013-07-27 21:12:00,
2013-07-27 17:17:00,66.3,54.2,29.67,NNW,343,0.0,0.0,65,0.00,,OVC030,0.00,VWS V14.01,2013-07-27 21:17:00,
2013-07-27 17:22:00,66.6,54.1,29.67,NNE,23,0.0,0.0,64,0.00,,OVC060,0.00,VWS V14.01,2013-07-27 21:22:00,
2013-07-27 17:27:00,66.6,53.6,29.67,NNW,339,0.0,0.0,63,0.00,,OVC060,0.00,VWS V14.01,2013-07-27 21:27:00,
2013-07-27 17:32:00,66.9,53.5,29.67,NNW,347,0.0,0.0,62,0.00,,OVC060,0.00,VWS V14.01,2013-07-27 21:32:00,
2013-07-27 17:37:00,66.4,53.4,29.67,WNW,295,0.0,0.0,63,0.00,,OVC060,0.00,VWS V14.01,2013-07-27 21:37:00,
2013-07-27 17:47:00,66.3,52.9,29.67,NNW,342,0.0,0.0,62,0.00,,OVC060,0.00,VWS V14.01,2013-07-27 21:47:00,
2013-07-27 17:52:00,65.5,52.6,29.67,NW,325,0.0,0.0,63,0.00,,OVC060,0.00,VWS V14.01,2013-07-27 21:52:00,
2013-07-27 18:02:00,65.8,52.4,29.67,NW,322,0.0,0.0,62,0.00,,OVC060,0.00,VWS V14.01,2013-07-27 22:02:00,
2013-07-27 18:07:00,65.5,52.6,29.67,North,359,0.0,0.0,63,0.00,,OVC060,0.00,VWS V14.01,2013-07-27 22:07:00,
2013-07-27 18:17:00,65.3,52.0,29.68,North,354,0.0,0.0,62,0.00,,OVC060,0.00,VWS V14.01,2013-07-27 22:17:00,
2013-07-27 18:22:00,66.0,52.2,29.68,NNW,339,0.0,0.0,61,0.00,,OVC060,0.00,VWS V14.01,2013-07-27 22:22:00,
2013-07-27 18:27:00,66.3,51.6,29.68,NW,309,0.0,0.0,59,0.00,,OVC060,0.00,VWS V14.01,2013-07-27 22:27:00,
2013-07-27 18:32:00,66.1,51.8,29.68,NNW,328,0.0,0.0,60,0.00,,OVC060,0.00,VWS V14.01,2013-07-27 22:32:00,
2013-07-27 18:37:00,66.1,51.8,29.68,NNW,342,0.0,0.0,60,0.00,,OVC060,0.00,VWS V14.01,2013-07-27 22:37:00,
2013-07-27 18:47:00,65.6,51.4,29.68,NW,304,0.0,0.0,60,0.00,,OVC060,0.00,VWS V14.01,2013-07-27 22:47:00,
2013-07-27 18:52:00,65.0,51.2,29.68,NNW,335,0.0,0.0,61,0.00,,OVC060,0.00,VWS V14.01,2013-07-27 22:52:00,
2013-07-27 18:57:00,64.8,51.5,29.68,NNW,346,0.0,0.0,62,0.00,,OVC060,0.00,VWS V14.01,2013-07-27 22:57:00,
2013-07-27 19:02:00,65.2,51.4,29.68,NNW,329,0.0,0.0,61,0.00,,OVC060,0.00,VWS V14.01,2013-07-27 23:02:00,
2013-07-27 19:12:00,64.8,51.5,29.68,NW,318,0.0,0.0,62,0.00,,OVC060,0.00,VWS V14.01,2013-07-27 23:12:00,
2013-07-27 19:17:00,64.3,50.6,29.69,NNW,328,0.0,0.0,61,0.00,,OVC060,0.00,VWS V14.01,2013-07-27 23:17:00,
2013-07-27 19:22:00,64.0,50.7,29.69,NW,326,0.0,0.0,62,0.00,,BKN045,0.00,VWS V14.01,2013-07-27 23:22:00,
2013-07-27 19:27:00,64.3,50.6,29.69,North,352,0.0,0.0,61,0.00,,BKN045,0.00,VWS V14.01,2013-07-27 23:27:00,
2013-07-27 19:32:00,64.5,50.8,29.69,NNW,340,0.0,0.0,61,0.00,,BKN045,0.00,VWS V14.01,2013-07-27 23:32:00,
2013-07-27 19:37:00,64.2,50.5,29.69,North,352,0.0,0.0,61,0.00,,BKN045,0.00,VWS V14.01,2013-07-27 23:37:00,
2013-07-27 19:42:00,64.0,50.3,29.69,NW,306,0.0,0.0,61,0.00,,BKN045,0.00,VWS V14.01,2013-07-27 23:42:00,
2013-07-27 19:47:00,63.9,50.2,29.69,NE,34,0.0,0.0,61,0.00,,BKN045,0.00,VWS V14.01,2013-07-27 23:47:00,
2013-07-27 19:52:00,63.7,50.0,29.69,North,354,0.0,0.0,61,0.00,,BKN045,0.00,VWS V14.01,2013-07-27 23:52:00,
2013-07-27 19:57:00,63.2,50.0,29.69,North,350,0.0,0.0,62,0.00,,BKN045,0.00,VWS V14.01,2013-07-27 23:57:00,
2013-07-27 20:02:00,63.2,50.0,29.70,North,359,0.0,0.0,62,0.00,,BKN045,0.00,VWS V14.01,2013-07-28 00:02:00,
2013-07-27 20:12:00,62.6,49.4,29.70,North,1,0.0,0.0,62,0.00,,BKN045,0.00,VWS V14.01,2013-07-28 00:12:00,
2013-07-27 20:17:00,62.6,49.8,29.70,NNW,347,0.0,0.0,63,0.00,,BKN045,0.00,VWS V14.01,2013-07-28 00:17:00,
2013-07-27 20:22:00,62.4,49.7,29.70,North,0,0.0,0.0,63,0.00,,OVC060,0.00,VWS V14.01,2013-07-28 00:22:00,
2013-07-27 20:27:00,62.3,49.6,29.70,NNW,344,0.0,0.0,63,0.00,,OVC060,0.00,VWS V14.01,2013-07-28 00:27:00,
2013-07-27 20:32:00,62.1,49.4,29.70,NNW,346,0.0,0.0,63,0.00,,OVC060,0.00,VWS V14.01,2013-07-28 00:32:00,
2013-07-27 20:37:00,62.1,49.4,29.70,NNW,329,0.0,0.0,63,0.00,,OVC060,0.00,VWS V14.01,2013-07-28 00:37:00,
2013-07-27 20:47:00,61.8,49.1,29.71,NNW,344,0.0,0.0,63,0.00,,OVC060,0.00,VWS V14.01,2013-07-28 00:47:00,
2013-07-27 20:52:00,61.6,48.9,29.71,North,357,0.0,0.0,63,0.00,,OVC060,0.00,VWS V14.01,2013-07-28 00:52:00,
2013-07-27 21:02:00,61.2,48.5,29.71,NNW,344,0.0,0.0,63,0.00,,OVC060,0.00,VWS V14.01,2013-07-28 01:02:00,
2013-07-27 21:12:00,60.9,48.7,29.71,North,357,0.0,0.0,64,0.00,,OVC060,0.00,VWS V14.01,2013-07-28 01:12:00,
2013-07-27 21:17:00,60.5,48.3,29.71,North,359,0.0,0.0,64,0.00,,OVC060,0.00,VWS V14.01,2013-07-28 01:17:00,
2013-07-27 21:27:00,60.2,48.4,29.71,NW,304,0.0,0.0,65,0.00,,OVC060,0.00,VWS V14.01,2013-07-28 01:27:00,
2013-07-27 21:37:00,59.9,48.1,29.72,North,349,0.0,0.0,65,0.00,,OVC060,0.00,VWS V14.01,2013-07-28 01:37:00,
2013-07-27 21:42:00,59.8,48.0,29.72,NW,304,0.0,0.0,65,0.00,,OVC060,0.00,VWS V14.01,2013-07-28 01:42:00,
2013-07-27 21:47:00,59.6,47.8,29.73,NNW,333,0.0,0.0,65,0.00,,OVC060,0.00,VWS V14.01,2013-07-28 01:47:00,
2013-07-27 21:52:00,59.3,48.0,29.73,NNW,335,0.0,0.0,66,0.00,,OVC060,0.00,VWS V14.01,2013-07-28 01:52:00,
2013-07-27 21:57:00,59.2,47.9,29.73,NNW,339,0.0,0.0,66,0.00,,OVC060,0.00,VWS V14.01,2013-07-28 01:57:00,
2013-07-27 22:02:00,59.2,48.3,29.73,NNW,336,2.0,2.0,67,0.00,,OVC060,0.00,VWS V14.01,2013-07-28 02:02:00,
2013-07-27 22:07:00,59.0,48.1,29.73,NNW,336,0.0,3.0,67,0.00,,OVC060,0.00,VWS V14.01,2013-07-28 02:07:00,
2013-07-27 22:12:00,58.9,48.0,29.73,NNW,336,2.0,5.0,67,0.00,,OVC060,0.00,VWS V14.01,2013-07-28 02:12:00,
2013-07-27 22:17:00,58.9,48.4,29.73,NNW,336,0.0,5.0,68,0.00,,OVC060,0.00,VWS V14.01,2013-07-28 02:17:00,
2013-07-27 22:22:00,58.7,48.2,29.73,NNW,332,0.0,1.0,68,0.00,,OVC055,0.00,VWS V14.01,2013-07-28 02:22:00,
2013-07-27 22:27:00,58.7,48.2,29.73,NNW,332,0.0,1.0,68,0.00,,OVC055,0.00,VWS V14.01,2013-07-28 02:27:00,
2013-07-27 22:32:00,58.7,48.6,29.73,NNW,332,0.0,0.0,69,0.00,,OVC055,0.00,VWS V14.01,2013-07-28 02:32:00,
2013-07-27 22:37:00,58.6,48.5,29.73,NNW,332,0.0,0.0,69,0.00,,OVC055,0.00,VWS V14.01,2013-07-28 02:37:00,
2013-07-27 22:42:00,58.4,48.3,29.73,NNW,332,0.0,1.0,69,0.00,,OVC055,0.00,VWS V14.01,2013-07-28 02:42:00,
2013-07-27 22:52:00,58.1,48.4,29.74,NNW,332,0.0,0.0,70,0.00,,OVC055,0.00,VWS V14.01,2013-07-28 02:52:00,
2013-07-27 22:57:00,58.0,48.7,29.74,NNW,332,0.0,0.0,71,0.00,,OVC055,0.00,VWS V14.01,2013-07-28 02:57:00,
2013-07-27 23:02:00,58.0,48.7,29.74,NNW,332,0.0,1.0,71,0.00,,OVC055,0.00,VWS V14.01,2013-07-28 03:02:00,
2013-07-27 23:12:00,57.6,48.7,29.74,NNW,332,0.0,0.0,72,0.00,,OVC055,0.00,VWS V14.01,2013-07-28 03:12:00,
2013-07-27 23:22:00,58.1,48.8,29.73,NNW,332,0.0,1.0,71,0.00,,OVC060,0.00,VWS V14.01,2013-07-28 03:22:00,
2013-07-27 23:27:00,58.0,48.7,29.73,NNW,332,0.0,1.0,71,0.00,,OVC060,0.00,VWS V14.01,2013-07-28 03:27:00,
2013-07-27 23:32:00,57.8,48.8,29.73,NNW,332,0.0,1.0,72,0.00,,OVC060,0.00,VWS V14.01,2013-07-28 03:32:00,
2013-07-27 23:37:00,57.6,48.7,29.73,NNW,332,0.0,1.0,72,0.00,,OVC060,0.00,VWS V14.01,2013-07-28 03:37:00,
2013-07-27 23:47:00,57.6,48.7,29.73,NNW,332,0.0,0.0,72,0.00,,OVC060,0.00,VWS V14.01,2013-07-28 03:47:00,
2013-07-27 23:52:00,57.6,48.7,29.73,NNW,332,0.0,0.0,72,0.00,,OVC060,0.00,VWS V14.01,2013-07-28 03:52:00,
2013-07-27 23:57:00,57.8,48.5,29.73,NNW,332,1.0,1.0,71,0.00,,OVC060,0.00,VWS V14.01,2013-07-28 03:57:00,